Regional Weather Roundup
Issued by NWS

Home | Current Version | Previous Version | Graphics & Text | Print | Product List | Glossary Off
Versions: 1 2 3 4 5 6 7 8 9 10 11 12 13 14 15 16 17 18 19 20 21 22 23 24 25 26 27 28 29 30 31 32 33 34 35 36 37 38 39 40 41 42 43 44 45 46 47 48 49 50

000
ASUS43 KFSD 240910
RWRSD

WEATHER ROUNDUP FOR SOUTH DAKOTA
NATIONAL WEATHER SERVICE SIOUX FALLS SD
400 AM CDT WED AUG 24 2016

NOTE: "FAIR" INDICATES FEW OR NO CLOUDS BELOW 12,000 FEET WITH NO
SIGNIFICANT WEATHER AND/OR OBSTRUCTIONS TO VISIBILITY.


SDZ001>005-009-010-012>017-241000-
NORTHWEST AND NORTH CENTRAL SOUTH DAKOTA

CITY           SKY/WX    TMP DP  RH WIND       PRES   REMARKS
BUFFALO          N/A     55  44  66 W15       30.03S
FAITH            N/A     53  39  59 W8        30.06R
MOBRIDGE       PTCLDY    56  45  66 N8        29.97R
$$

SDZ012>016-024>037-041>051-057-063-072>074-241000-
SOUTHWEST AND SOUTH CENTRAL SOUTH DAKOTA

CITY           SKY/WX    TMP DP  RH WIND       PRES   REMARKS
RAPID CTY ARPT CLOUDY    60  33  36 N15       30.11R
PIERRE         PTCLDY    56  42  59 W6        29.98R
CUSTER         CLOUDY    49  26  41 CALM      30.20R
ELLSWORTH AFB  PTCLDY    62  34  35 NW16      30.10R
PHILIP         CLEAR     52  42  69 W7        30.06R
PINE RIDGE     PTCLDY    44  41  89 CALM      30.12R
WINNER         FAIR      55  45  68 W8        30.03R
$$

SDZ004>011-016>023-039-040-241000-
NORTHEAST SOUTH DAKOTA

CITY           SKY/WX    TMP DP  RH WIND       PRES   REMARKS
ABERDEEN       CLOUDY    57  47  69 NW6       29.91R
WATERTOWN      CLEAR     59  53  80 N6        29.89R
SISSETON         N/A     61  51  70 N7        29.85S
$$

SDZ017-020-022-023-036>040-048>070-241000-
SOUTHEAST SOUTH DAKOTA

CITY           SKY/WX    TMP DP  RH WIND       PRES   REMARKS
SIOUX FALLS    CLEAR     69  61  75 N15       29.87R
HURON          CLEAR     53  48  83 W7        29.92R
CHAMBERLAIN    CLEAR     55  50  83 W5        30.00R
MITCHELL       CLEAR     56  50  80 NW6       29.93R
YANKTON        CLEAR     64  57  77 NW13      29.89R
$$

ABBREVIATIONS USED IN REMARKS
   TC - TEMPERATURE IN CELSIUS
  WCI - WIND CHILL INDEX
   HX - HEAT INDEX
  VSB - VISIBILITY




USA.gov is the U.S. government's official web portal to all federal, state and local government web resources and services.